Location: Conjunto Santa Maria
(19.9513°S, 43.9599°W)
Time: 13:36:25
(UTC+00:00)

Intelsat 5-3 Rocket - Pass Details

Date: 21 January 2021
Orbit: 283 x 6080 km, 23.5° (Epoch: 04 March)

Event Time Altitude Azimuth Distance (km) Brightness Sun altitude
Rises 21:47:18 0° 283° (WNW) 8,409 9.4 -2.2°
Reaches altitude 10° 21:54:48 10° 282° (WNW) 6,338 8.7 -3.8°
Maximum altitude 22:11:07 84° 193° (SSW) 1,412 4.4 -7.4°
Drops below altitude 10° 22:16:47 10° 104° (ESE) 2,403 5.1 -8.6°
Enters shadow 22:17:45 - 104° (ESE) 2,762 5.4 -8.8°
